contact:dominique.lefevre@mio.osupytheas.fr, maurice.libes@osupytheas.fr, didier.mallarino@osupytheas.fr
Project:EMSO http://www.emso-fr.org/EMSO-France
Depth: 2436.0 m
Title:EMSO Ligure Ouest : Data MII capteur CSTAR
DateTime,Latitude,Longitude,Instrument_Serial,Reference_Counts,Signal_Counts,Corrected_Signal_raw_counts,Calculated_Beam_c_inverse_meters,Internal_thermistor_counts
DateTime,Latitude,Longitude,Instrument_Serial,Reference_Counts,Signal_Counts,Corrected_Signal_raw_counts,Calculated_Beam_c_inverse_meters,Internal_thermistor_counts
2023-02-02T00:02:19,42.805,6.029,CST-1368DR,4397,4828,11668,01.166,551
2023-02-02T00:05:20,42.805,6.029,CST-1368DR,4397,4829,11670,01.165,551
2023-02-02T00:08:22,42.805,6.029,CST-1368DR,4397,4829,11671,01.165,551
2023-02-02T00:11:24,42.805,6.029,CST-1368DR,4397,4829,11669,01.165,551
2023-02-02T00:14:25,42.805,6.029,CST-1368DR,4397,4830,11672,01.164,551
2023-02-02T00:17:27,42.805,6.029,CST-1368DR,4397,4830,11672,01.164,551
2023-02-02T00:20:28,42.805,6.029,CST-1368DR,4397,4830,11672,01.164,551
2023-02-02T00:23:30,42.805,6.029,CST-1368DR,4397,4830,11672,01.164,551
2023-02-02T00:26:32,42.805,6.029,CST-1368DR,4397,4829,11669,01.165,551
2023-02-02T00:29:33,42.805,6.029,CST-1368DR,4397,4829,11669,01.165,551
2023-02-02T00:32:35,42.805,6.029,CST-1368DR,4397,4829,11669,01.165,551
2023-02-02T00:35:36,42.805,6.029,CST-1368DR,4397,4829,11671,01.165,551
2023-02-02T00:38:38,42.805,6.029,CST-1368DR,4397,4829,11671,01.165,551
2023-02-02T00:41:39,42.805,6.029,CST-1368DR,4397,4830,11673,01.164,551
2023-02-02T00:44:41,42.805,6.029,CST-1368DR,4397,4829,11670,01.165,551
2023-02-02T00:47:43,42.805,6.029,CST-1368DR,4397,4830,11672,01.164,551
2023-02-02T00:50:44,42.805,6.029,CST-1368DR,4397,4829,11669,01.165,551
2023-02-02T00:53:46,42.805,6.029,CST-1368DR,4397,4829,11670,01.165,551
2023-02-02T00:56:47,42.805,6.029,CST-1368DR,4397,4829,11669,01.165,551
2023-02-02T00:59:49,42.805,6.029,CST-1368DR,4397,4829,11670,01.165,551
2023-02-02T01:02:51,42.805,6.029,CST-1368DR,4397,4830,11672,01.164,551
2023-02-02T01:05:52,42.805,6.029,CST-1368DR,4397,4827,11665,01.167,551
2023-02-02T01:08:54,42.805,6.029,CST-1368DR,4397,4827,11666,01.166,551
2023-02-02T01:11:55,42.805,6.029,CST-1368DR,4397,4828,11669,01.165,551
2023-02-02T01:14:57,42.805,6.029,CST-1368DR,4397,4829,11670,01.165,551
2023-02-02T01:17:58,42.805,6.029,CST-1368DR,4397,4826,11663,01.167,551
2023-02-02T01:21:00,42.805,6.029,CST-1368DR,4397,4828,11668,01.166,551
2023-02-02T01:24:02,42.805,6.029,CST-1368DR,4397,4825,11662,01.168,551
2023-02-02T01:27:03,42.805,6.029,CST-1368DR,4397,4824,11659,01.169,551
2023-02-02T01:30:05,42.805,6.029,CST-1368DR,4397,4824,11658,01.169,551
2023-02-02T01:33:06,42.805,6.029,CST-1368DR,4397,4824,11658,01.169,551
2023-02-02T01:36:08,42.805,6.029,CST-1368DR,4397,4821,11651,01.172,551
2023-02-02T01:39:10,42.805,6.029,CST-1368DR,4397,4820,11649,01.172,551
2023-02-02T01:42:11,42.805,6.029,CST-1368DR,4397,4824,11659,01.169,551
2023-02-02T01:45:13,42.805,6.029,CST-1368DR,4397,4822,11654,01.171,551
2023-02-02T01:48:14,42.805,6.029,CST-1368DR,4397,4822,11653,01.171,551
2023-02-02T01:51:16,42.805,6.029,CST-1368DR,4397,4823,11656,01.170,551
2023-02-02T01:54:17,42.805,6.029,CST-1368DR,4397,4821,11650,01.172,551
2023-02-02T01:57:19,42.805,6.029,CST-1368DR,4397,4824,11658,01.169,551
2023-02-02T02:00:21,42.805,6.029,CST-1368DR,4397,4823,11655,01.170,551
2023-02-02T02:03:22,42.805,6.029,CST-1368DR,4397,4824,11659,01.169,551
2023-02-02T02:06:24,42.805,6.029,CST-1368DR,4397,4821,11651,01.172,551
2023-02-02T02:09:25,42.805,6.029,CST-1368DR,4397,4822,11654,01.171,551
2023-02-02T02:12:27,42.805,6.029,CST-1368DR,4397,4827,11665,01.167,551
2023-02-02T02:15:29,42.805,6.029,CST-1368DR,4397,4827,11665,01.167,551
2023-02-02T02:18:30,42.805,6.029,CST-1368DR,4397,4823,11655,01.170,551
2023-02-02T02:21:32,42.805,6.029,CST-1368DR,4397,4823,11656,01.170,551
2023-02-02T02:24:33,42.805,6.029,CST-1368DR,4397,4820,11650,01.172,551
2023-02-02T02:27:35,42.805,6.029,CST-1368DR,4397,4821,11651,01.172,551
2023-02-02T02:30:36,42.805,6.029,CST-1368DR,4397,4819,11645,01.174,551
2023-02-02T02:33:38,42.805,6.029,CST-1368DR,4397,4819,11647,01.173,551
2023-02-02T02:36:40,42.805,6.029,CST-1368DR,4397,4821,11651,01.172,551
2023-02-02T02:39:41,42.805,6.029,CST-1368DR,4397,4820,11650,01.172,551
2023-02-02T02:42:43,42.805,6.029,CST-1368DR,4397,4820,11648,01.173,551
2023-02-02T02:45:44,42.805,6.029,CST-1368DR,4397,4818,11643,01.174,551
2023-02-02T02:48:46,42.805,6.029,CST-1368DR,4397,4819,11645,01.174,551
2023-02-02T02:51:48,42.805,6.029,CST-1368DR,4397,4818,11643,01.174,551
2023-02-02T02:54:49,42.805,6.029,CST-1368DR,4397,4818,11645,01.174,551
2023-02-02T02:57:51,42.805,6.029,CST-1368DR,4397,4819,11645,01.174,551
2023-02-02T03:00:52,42.805,6.029,CST-1368DR,4397,4820,11648,01.173,551
2023-02-02T03:03:54,42.805,6.029,CST-1368DR,4397,4820,11648,01.173,551
2023-02-02T03:06:55,42.805,6.029,CST-1368DR,4397,4819,11646,01.173,551
2023-02-02T03:09:57,42.805,6.029,CST-1368DR,4397,4819,11647,01.173,551
2023-02-02T03:12:59,42.805,6.029,CST-1368DR,4397,4827,11665,01.167,551
2023-02-02T03:16:00,42.805,6.029,CST-1368DR,4397,4821,11651,01.172,551
2023-02-02T03:19:02,42.805,6.029,CST-1368DR,4397,4821,11651,01.172,551
2023-02-02T03:22:03,42.805,6.029,CST-1368DR,4397,4821,11652,01.171,551
2023-02-02T03:25:05,42.805,6.029,CST-1368DR,4397,4821,11651,01.172,551
2023-02-02T03:28:07,42.805,6.029,CST-1368DR,4397,4820,11648,01.173,551
2023-02-02T03:31:08,42.805,6.029,CST-1368DR,4397,4821,11650,01.172,551
2023-02-02T03:34:10,42.805,6.029,CST-1368DR,4397,4821,11651,01.172,551
2023-02-02T03:37:11,42.805,6.029,CST-1368DR,4397,4820,11649,01.172,551
2023-02-02T03:40:13,42.805,6.029,CST-1368DR,4397,4819,11645,01.174,551
2023-02-02T03:43:15,42.805,6.029,CST-1368DR,4397,4820,11649,01.172,551
2023-02-02T03:46:16,42.805,6.029,CST-1368DR,4397,4828,11667,01.166,551
2023-02-02T03:49:18,42.805,6.029,CST-1368DR,4397,4828,11667,01.166,551
2023-02-02T03:52:19,42.805,6.029,CST-1368DR,4397,4827,11666,01.166,551
2023-02-02T03:55:21,42.805,6.029,CST-1368DR,4397,4827,11665,01.167,551
2023-02-02T03:58:22,42.805,6.029,CST-1368DR,4397,4824,11659,01.169,551
2023-02-02T04:01:24,42.805,6.029,CST-1368DR,4397,4825,11660,01.169,551
2023-02-02T04:04:26,42.805,6.029,CST-1368DR,4397,4823,11657,01.170,551
2023-02-02T04:07:27,42.805,6.029,CST-1368DR,4397,4823,11656,01.170,551
2023-02-02T04:10:29,42.805,6.029,CST-1368DR,4397,4819,11647,01.173,551
2023-02-02T04:13:30,42.805,6.029,CST-1368DR,4397,4821,11650,01.172,551
2023-02-02T04:16:32,42.805,6.029,CST-1368DR,4397,4821,11650,01.172,551
2023-02-02T04:19:34,42.805,6.029,CST-1368DR,4397,4821,11651,01.172,551
2023-02-02T04:22:35,42.805,6.029,CST-1368DR,4397,4818,11644,01.174,551
2023-02-02T04:25:37,42.805,6.029,CST-1368DR,4397,4819,11647,01.173,551
2023-02-02T04:28:38,42.805,6.029,CST-1368DR,4397,4819,11647,01.173,551
2023-02-02T04:31:40,42.805,6.029,CST-1368DR,4397,4818,11645,01.174,551
2023-02-02T04:34:41,42.805,6.029,CST-1368DR,4397,4818,11644,01.174,551
2023-02-02T04:37:43,42.805,6.029,CST-1368DR,4397,4819,11645,01.174,551
2023-02-02T04:40:45,42.805,6.029,CST-1368DR,4397,4814,11633,01.178,551
2023-02-02T04:43:46,42.805,6.029,CST-1368DR,4397,4818,11643,01.174,551
2023-02-02T04:46:48,42.805,6.029,CST-1368DR,4397,4816,11639,01.176,551
2023-02-02T04:49:49,42.805,6.029,CST-1368DR,4397,4818,11643,01.174,551
2023-02-02T04:52:51,42.805,6.029,CST-1368DR,4396,4818,11647,01.173,551
2023-02-02T04:55:52,42.805,6.029,CST-1368DR,4396,4818,11647,01.173,551
2023-02-02T04:58:54,42.805,6.029,CST-1368DR,4397,4817,11642,01.175,551
2023-02-02T05:01:56,42.805,6.029,CST-1368DR,4397,4818,11645,01.174,551
2023-02-02T05:04:57,42.805,6.029,CST-1368DR,4396,4820,11651,01.172,551
2023-02-02T05:07:59,42.805,6.029,CST-1368DR,4396,4819,11649,01.172,551
2023-02-02T05:11:00,42.805,6.029,CST-1368DR,4396,4818,11647,01.173,551
2023-02-02T05:14:02,42.805,6.029,CST-1368DR,4396,4818,11645,01.174,551
2023-02-02T05:17:04,42.805,6.029,CST-1368DR,4396,4818,11646,01.173,551
2023-02-02T05:20:05,42.805,6.029,CST-1368DR,4396,4818,11645,01.174,551
2023-02-02T05:23:07,42.805,6.029,CST-1368DR,4397,4818,11643,01.174,551
2023-02-02T05:26:08,42.805,6.029,CST-1368DR,4396,4818,11646,01.173,551
2023-02-02T05:29:10,42.805,6.029,CST-1368DR,4396,4819,11649,01.172,551
2023-02-02T05:32:11,42.805,6.029,CST-1368DR,4396,4815,11640,01.175,551
2023-02-02T05:35:13,42.805,6.029,CST-1368DR,4396,4817,11644,01.174,551
2023-02-02T05:38:15,42.805,6.029,CST-1368DR,4396,4822,11656,01.170,551
2023-02-02T05:41:16,42.805,6.029,CST-1368DR,4396,4818,11646,01.173,551
2023-02-02T05:44:18,42.805,6.029,CST-1368DR,4396,4817,11645,01.174,551
2023-02-02T05:47:19,42.805,6.029,CST-1368DR,4396,4818,11646,01.173,551
2023-02-02T05:50:21,42.805,6.029,CST-1368DR,4396,4816,11642,01.175,551
2023-02-02T05:53:23,42.805,6.029,CST-1368DR,4396,4816,11642,01.175,551
2023-02-02T05:56:24,42.805,6.029,CST-1368DR,4396,4816,11642,01.175,551
2023-02-02T05:59:26,42.805,6.029,CST-1368DR,4396,4815,11638,01.176,551
2023-02-02T06:02:27,42.805,6.029,CST-1368DR,4396,4819,11649,01.172,551
2023-02-02T06:05:29,42.805,6.029,CST-1368DR,4396,4818,11646,01.173,551
2023-02-02T06:08:31,42.805,6.029,CST-1368DR,4396,4819,11649,01.172,551
2023-02-02T06:11:32,42.805,6.029,CST-1368DR,4396,4818,11646,01.173,551
2023-02-02T06:14:34,42.805,6.029,CST-1368DR,4396,4817,11645,01.174,551
2023-02-02T06:17:35,42.805,6.029,CST-1368DR,4396,4816,11641,01.175,551
2023-02-02T06:20:37,42.805,6.029,CST-1368DR,4397,4819,11646,01.173,551
2023-02-02T06:23:38,42.805,6.029,CST-1368DR,4397,4826,11663,01.167,551
2023-02-02T06:26:40,42.805,6.029,CST-1368DR,4397,4819,11645,01.174,551
2023-02-02T06:29:42,42.805,6.029,CST-1368DR,4396,4817,11644,01.174,551
2023-02-02T06:32:43,42.805,6.029,CST-1368DR,4397,4817,11642,01.175,551
2023-02-02T06:35:45,42.805,6.029,CST-1368DR,4396,4816,11641,01.175,551
2023-02-02T06:38:46,42.805,6.029,CST-1368DR,4397,4817,11641,01.175,551
2023-02-02T06:41:48,42.805,6.029,CST-1368DR,4397,4816,11639,01.176,551
2023-02-02T06:44:50,42.805,6.029,CST-1368DR,4397,4816,11639,01.176,551
2023-02-02T06:47:51,42.805,6.029,CST-1368DR,4396,4816,11642,01.175,551
2023-02-02T06:50:53,42.805,6.029,CST-1368DR,4397,4817,11641,01.175,551
2023-02-02T06:53:54,42.805,6.029,CST-1368DR,4397,4818,11643,01.174,551
2023-02-02T06:56:56,42.805,6.029,CST-1368DR,4397,4818,11643,01.174,551
2023-02-02T06:59:57,42.805,6.029,CST-1368DR,4397,4818,11643,01.174,551
2023-02-02T07:02:59,42.805,6.029,CST-1368DR,4397,4818,11643,01.174,551
2023-02-02T07:06:01,42.805,6.029,CST-1368DR,4397,4817,11642,01.175,551
2023-02-02T07:09:02,42.805,6.029,CST-1368DR,4397,4817,11642,01.175,551
2023-02-02T07:12:04,42.805,6.029,CST-1368DR,4397,4815,11636,01.177,551
2023-02-02T07:15:05,42.805,6.029,CST-1368DR,4396,4816,11642,01.175,551
2023-02-02T07:18:07,42.805,6.029,CST-1368DR,4397,4815,11636,01.177,551
2023-02-02T07:21:08,42.805,6.029,CST-1368DR,4397,4816,11640,01.175,551
2023-02-02T07:24:10,42.805,6.029,CST-1368DR,4397,4815,11637,01.176,551
2023-02-02T07:27:12,42.805,6.029,CST-1368DR,4396,4815,11640,01.175,551
2023-02-02T07:30:13,42.805,6.029,CST-1368DR,4396,4813,11634,01.177,551
2023-02-02T07:33:15,42.805,6.029,CST-1368DR,4397,4814,11635,01.177,551
2023-02-02T07:36:16,42.805,6.029,CST-1368DR,4397,4815,11636,01.177,551
2023-02-02T07:39:18,42.805,6.029,CST-1368DR,4397,4815,11637,01.176,551
2023-02-02T07:42:20,42.805,6.029,CST-1368DR,4397,4816,11639,01.176,551
2023-02-02T07:45:21,42.805,6.029,CST-1368DR,4397,4816,11639,01.176,551
2023-02-02T07:48:23,42.805,6.029,CST-1368DR,4397,4815,11636,01.177,551
2023-02-02T07:51:24,42.805,6.029,CST-1368DR,4396,4815,11639,01.176,551
2023-02-02T07:54:26,42.805,6.029,CST-1368DR,4396,4816,11642,01.175,551
2023-02-02T07:57:27,42.805,6.029,CST-1368DR,4396,4816,11642,01.175,551
2023-02-02T08:00:29,42.805,6.029,CST-1368DR,4396,4808,11623,01.181,551
2023-02-02T08:03:31,42.805,6.029,CST-1368DR,4397,4815,11636,01.177,551
2023-02-02T08:06:32,42.805,6.029,CST-1368DR,4397,4815,11636,01.177,551
2023-02-02T08:09:34,42.805,6.029,CST-1368DR,4397,4815,11637,01.176,551
2023-02-02T08:12:35,42.805,6.029,CST-1368DR,4397,4815,11636,01.177,551
2023-02-02T08:15:37,42.805,6.029,CST-1368DR,4396,4815,11639,01.176,551
2023-02-02T08:18:39,42.805,6.029,CST-1368DR,4396,4815,11640,01.175,551
2023-02-02T08:21:40,42.805,6.029,CST-1368DR,4396,4815,11639,01.176,551
2023-02-02T08:24:42,42.805,6.029,CST-1368DR,4396,4814,11638,01.176,551
2023-02-02T08:27:43,42.805,6.029,CST-1368DR,4396,4816,11641,01.175,551
2023-02-02T08:30:45,42.805,6.029,CST-1368DR,4396,4812,11633,01.178,551
2023-02-02T08:33:46,42.805,6.029,CST-1368DR,4396,4815,11639,01.176,551
2023-02-02T08:36:48,42.805,6.029,CST-1368DR,4396,4816,11642,01.175,551
2023-02-02T08:39:50,42.805,6.029,CST-1368DR,4396,4815,11640,01.175,551
2023-02-02T08:42:51,42.805,6.029,CST-1368DR,4396,4817,11643,01.174,551
2023-02-02T08:45:53,42.805,6.029,CST-1368DR,4396,4817,11643,01.174,551
2023-02-02T08:48:54,42.805,6.029,CST-1368DR,4397,4817,11640,01.175,551
2023-02-02T08:51:56,42.805,6.029,CST-1368DR,4396,4816,11641,01.175,551
2023-02-02T08:54:58,42.805,6.029,CST-1368DR,4396,4816,11641,01.175,551
2023-02-02T08:57:59,42.805,6.029,CST-1368DR,4396,4816,11641,01.175,551
2023-02-02T09:01:01,42.805,6.029,CST-1368DR,4396,4815,11639,01.176,551
2023-02-02T09:04:02,42.805,6.029,CST-1368DR,4397,4824,11659,01.169,551
2023-02-02T09:07:04,42.805,6.029,CST-1368DR,4396,4816,11642,01.175,551
2023-02-02T09:10:05,42.805,6.029,CST-1368DR,4396,4815,11639,01.176,551
2023-02-02T09:13:07,42.805,6.029,CST-1368DR,4396,4816,11641,01.175,551
2023-02-02T09:16:09,42.805,6.029,CST-1368DR,4396,4815,11640,01.175,551
2023-02-02T09:19:10,42.805,6.029,CST-1368DR,4396,4816,11641,01.175,551
2023-02-02T09:22:12,42.805,6.029,CST-1368DR,4396,4816,11642,01.175,551
2023-02-02T09:25:13,42.805,6.029,CST-1368DR,4397,4817,11640,01.175,551
2023-02-02T09:28:15,42.805,6.029,CST-1368DR,4396,4816,11642,01.175,551
2023-02-02T09:31:17,42.805,6.029,CST-1368DR,4396,4817,11643,01.174,551
2023-02-02T09:34:18,42.805,6.029,CST-1368DR,4396,4817,11643,01.174,551
2023-02-02T09:37:20,42.805,6.029,CST-1368DR,4396,4816,11642,01.175,551
2023-02-02T09:40:21,42.805,6.029,CST-1368DR,4396,4816,11642,01.175,551
2023-02-02T09:43:23,42.805,6.029,CST-1368DR,4396,4817,11644,01.174,551
2023-02-02T09:46:24,42.805,6.029,CST-1368DR,4397,4817,11642,01.175,551
2023-02-02T09:49:26,42.805,6.029,CST-1368DR,4396,4818,11645,01.174,551
2023-02-02T09:52:28,42.805,6.029,CST-1368DR,4396,4816,11641,01.175,551
2023-02-02T09:55:29,42.805,6.029,CST-1368DR,4396,4816,11642,01.175,551
2023-02-02T09:58:31,42.805,6.029,CST-1368DR,4396,4817,11644,01.174,551
2023-02-02T10:01:32,42.805,6.029,CST-1368DR,4396,4817,11644,01.174,551
2023-02-02T10:04:34,42.805,6.029,CST-1368DR,4396,4820,11650,01.172,551
2023-02-02T10:07:36,42.805,6.029,CST-1368DR,4396,4818,11645,01.174,551
2023-02-02T10:10:37,42.805,6.029,CST-1368DR,4396,4818,11645,01.174,551
2023-02-02T10:13:39,42.805,6.029,CST-1368DR,4396,4817,11644,01.174,551
2023-02-02T10:16:40,42.805,6.029,CST-1368DR,4396,4815,11639,01.176,551
2023-02-02T10:19:42,42.805,6.029,CST-1368DR,4396,4816,11642,01.175,551
2023-02-02T10:22:43,42.805,6.029,CST-1368DR,4396,4816,11641,01.175,551
2023-02-02T10:25:45,42.805,6.029,CST-1368DR,4396,4817,11644,01.174,551
2023-02-02T10:28:47,42.805,6.029,CST-1368DR,4396,4816,11642,01.175,551
2023-02-02T10:31:48,42.805,6.029,CST-1368DR,4396,4817,11643,01.174,551
2023-02-02T10:34:50,42.805,6.029,CST-1368DR,4396,4816,11642,01.175,551
2023-02-02T10:37:51,42.805,6.029,CST-1368DR,4396,4817,11644,01.174,551
2023-02-02T10:40:53,42.805,6.029,CST-1368DR,4396,4817,11643,01.174,551
2023-02-02T10:43:55,42.805,6.029,CST-1368DR,4396,4817,11644,01.174,551
2023-02-02T10:46:56,42.805,6.029,CST-1368DR,4396,4816,11642,01.175,551
2023-02-02T10:49:58,42.805,6.029,CST-1368DR,4396,4818,11645,01.174,551
2023-02-02T10:52:59,42.805,6.029,CST-1368DR,4396,4817,11643,01.174,551
2023-02-02T10:56:01,42.805,6.029,CST-1368DR,4396,4817,11644,01.174,551
2023-02-02T10:59:02,42.805,6.029,CST-1368DR,4396,4817,11643,01.174,551
2023-02-02T11:02:04,42.805,6.029,CST-1368DR,4396,4816,11642,01.175,551
2023-02-02T11:05:06,42.805,6.029,CST-1368DR,4396,4816,11642,01.175,551
2023-02-02T11:08:07,42.805,6.029,CST-1368DR,4396,4815,11638,01.176,551
2023-02-02T11:11:09,42.805,6.029,CST-1368DR,4396,4814,11637,01.176,551
2023-02-02T11:14:10,42.805,6.029,CST-1368DR,4396,4814,11637,01.176,550
2023-02-02T11:17:12,42.805,6.029,CST-1368DR,4396,4815,11640,01.175,551
2023-02-02T11:20:14,42.805,6.029,CST-1368DR,4396,4816,11642,01.175,551
2023-02-02T11:23:15,42.805,6.029,CST-1368DR,4396,4815,11639,01.176,551
2023-02-02T11:26:17,42.805,6.029,CST-1368DR,4396,4815,11638,01.176,551
2023-02-02T11:29:18,42.805,6.029,CST-1368DR,4396,4815,11639,01.176,551
2023-02-02T11:32:20,42.805,6.029,CST-1368DR,4396,4815,11639,01.176,551
2023-02-02T11:35:21,42.805,6.029,CST-1368DR,4396,4815,11638,01.176,551
2023-02-02T11:38:23,42.805,6.029,CST-1368DR,4396,4817,11644,01.174,551
2023-02-02T11:41:25,42.805,6.029,CST-1368DR,4396,4815,11639,01.176,551
2023-02-02T11:44:26,42.805,6.029,CST-1368DR,4396,4814,11638,01.176,551
2023-02-02T11:47:28,42.805,6.029,CST-1368DR,4396,4815,11639,01.176,551
2023-02-02T11:50:29,42.805,6.029,CST-1368DR,4396,4814,11638,01.176,551
2023-02-02T11:53:31,42.805,6.029,CST-1368DR,4396,4815,11640,01.175,551
2023-02-02T11:56:33,42.805,6.029,CST-1368DR,4396,4816,11641,01.175,551
2023-02-02T11:59:34,42.805,6.029,CST-1368DR,4396,4818,11645,01.174,551
2023-02-02T12:02:36,42.805,6.029,CST-1368DR,4396,4815,11640,01.175,551
2023-02-02T12:05:37,42.805,6.029,CST-1368DR,4396,4815,11638,01.176,551
2023-02-02T12:08:39,42.805,6.029,CST-1368DR,4396,4815,11638,01.176,551
2023-02-02T12:11:40,42.805,6.029,CST-1368DR,4396,4815,11640,01.175,551
2023-02-02T12:14:42,42.805,6.029,CST-1368DR,4396,4815,11640,01.175,551
2023-02-02T12:17:44,42.805,6.029,CST-1368DR,4396,4815,11639,01.176,551
2023-02-02T12:20:45,42.805,6.029,CST-1368DR,4396,4815,11639,01.176,551
2023-02-02T12:23:47,42.805,6.029,CST-1368DR,4396,4815,11639,01.176,551
2023-02-02T12:26:48,42.805,6.029,CST-1368DR,4396,4814,11637,01.176,551
2023-02-02T12:29:50,42.805,6.029,CST-1368DR,4396,4815,11640,01.175,551
2023-02-02T12:32:52,42.805,6.029,CST-1368DR,4396,4815,11640,01.175,551
2023-02-02T12:35:53,42.805,6.029,CST-1368DR,4396,4815,11638,01.176,551
2023-02-02T12:38:55,42.805,6.029,CST-1368DR,4396,4814,11636,01.177,551
2023-02-02T12:41:56,42.805,6.029,CST-1368DR,4396,4811,11629,01.179,551
2023-02-02T12:44:58,42.805,6.029,CST-1368DR,4396,4812,11631,01.178,551
2023-02-02T12:47:59,42.805,6.029,CST-1368DR,4396,4814,11638,01.176,551
2023-02-02T12:51:01,42.805,6.029,CST-1368DR,4396,4814,11637,01.176,551
2023-02-02T12:54:03,42.805,6.029,CST-1368DR,4396,4815,11640,01.175,551
2023-02-02T12:57:04,42.805,6.029,CST-1368DR,4396,4816,11641,01.175,551
2023-02-02T13:00:06,42.805,6.029,CST-1368DR,4396,4816,11641,01.175,551
2023-02-02T13:03:07,42.805,6.029,CST-1368DR,4396,4815,11640,01.175,551
2023-02-02T13:06:09,42.805,6.029,CST-1368DR,4396,4815,11640,01.175,551
2023-02-02T13:09:11,42.805,6.029,CST-1368DR,4396,4815,11639,01.176,551
2023-02-02T13:12:12,42.805,6.029,CST-1368DR,4396,4816,11641,01.175,551
2023-02-02T13:15:14,42.805,6.029,CST-1368DR,4396,4814,11638,01.176,551
2023-02-02T13:18:15,42.805,6.029,CST-1368DR,4396,4814,11638,01.176,551
2023-02-02T13:21:17,42.805,6.029,CST-1368DR,4396,4814,11637,01.176,551
2023-02-02T13:24:18,42.805,6.029,CST-1368DR,4396,4814,11637,01.176,551
2023-02-02T13:27:20,42.805,6.029,CST-1368DR,4396,4813,11634,01.177,551
2023-02-02T13:30:22,42.805,6.029,CST-1368DR,4396,4813,11635,01.177,551
2023-02-02T13:33:23,42.805,6.029,CST-1368DR,4396,4814,11638,01.176,551
2023-02-02T13:36:25,42.805,6.029,CST-1368DR,4396,4814,11637,01.176,551
2023-02-02T13:39:26,42.805,6.029,CST-1368DR,4396,4814,11636,01.177,551
2023-02-02T13:42:28,42.805,6.029,CST-1368DR,4396,4813,11635,01.177,551
2023-02-02T13:45:30,42.805,6.029,CST-1368DR,4396,4813,11635,01.177,551
2023-02-02T13:48:31,42.805,6.029,CST-1368DR,4396,4814,11636,01.177,551
2023-02-02T13:51:33,42.805,6.029,CST-1368DR,4396,4814,11637,01.176,551
2023-02-02T13:54:34,42.805,6.029,CST-1368DR,4396,4815,11639,01.176,551
2023-02-02T13:57:36,42.805,6.029,CST-1368DR,4396,4814,11636,01.177,551
2023-02-02T14:00:37,42.805,6.029,CST-1368DR,4396,4815,11640,01.175,551
2023-02-02T14:03:39,42.805,6.029,CST-1368DR,4396,4818,11647,01.173,551
2023-02-02T14:06:41,42.805,6.029,CST-1368DR,4396,4815,11639,01.176,551
2023-02-02T14:09:42,42.805,6.029,CST-1368DR,4396,4814,11638,01.176,551
2023-02-02T14:12:44,42.805,6.029,CST-1368DR,4396,4814,11637,01.176,551
2023-02-02T14:15:45,42.805,6.029,CST-1368DR,4396,4814,11638,01.176,551
2023-02-02T14:18:47,42.805,6.029,CST-1368DR,4396,4814,11637,01.176,551
2023-02-02T14:21:49,42.805,6.029,CST-1368DR,4396,4813,11635,01.177,551
2023-02-02T14:24:50,42.805,6.029,CST-1368DR,4396,4814,11638,01.176,551
2023-02-02T14:27:52,42.805,6.029,CST-1368DR,4396,4815,11639,01.176,551
2023-02-02T14:30:53,42.805,6.029,CST-1368DR,4396,4814,11636,01.177,551
2023-02-02T14:33:55,42.805,6.029,CST-1368DR,4396,4815,11639,01.176,551
2023-02-02T14:36:56,42.805,6.029,CST-1368DR,4396,4814,11638,01.176,551
2023-02-02T14:39:58,42.805,6.029,CST-1368DR,4396,4815,11639,01.176,551
2023-02-02T14:43:00,42.805,6.029,CST-1368DR,4396,4815,11639,01.176,551
2023-02-02T14:46:01,42.805,6.029,CST-1368DR,4396,4815,11639,01.176,551
2023-02-02T14:49:03,42.805,6.029,CST-1368DR,4396,4815,11639,01.176,551
2023-02-02T14:52:04,42.805,6.029,CST-1368DR,4396,4816,11642,01.175,551
2023-02-02T14:55:06,42.805,6.029,CST-1368DR,4396,4816,11642,01.175,551
2023-02-02T14:58:08,42.805,6.029,CST-1368DR,4396,4817,11643,01.174,551
2023-02-02T15:01:09,42.805,6.029,CST-1368DR,4396,4815,11639,01.176,551
2023-02-02T15:04:11,42.805,6.029,CST-1368DR,4396,4816,11642,01.175,551
2023-02-02T15:07:12,42.805,6.029,CST-1368DR,4396,4817,11643,01.174,551
2023-02-02T15:10:14,42.805,6.029,CST-1368DR,4396,4817,11643,01.174,551
2023-02-02T15:13:15,42.805,6.029,CST-1368DR,4396,4816,11642,01.175,551
2023-02-02T15:16:17,42.805,6.029,CST-1368DR,4396,4815,11640,01.175,551
2023-02-02T15:19:19,42.805,6.029,CST-1368DR,4396,4816,11641,01.175,551
2023-02-02T15:22:20,42.805,6.029,CST-1368DR,4396,4821,11653,01.171,551
2023-02-02T15:25:22,42.805,6.029,CST-1368DR,4396,4817,11644,01.174,551
2023-02-02T15:28:23,42.805,6.029,CST-1368DR,4396,4809,11625,01.181,551
2023-02-02T15:31:25,42.805,6.029,CST-1368DR,4396,4816,11642,01.175,551
2023-02-02T15:34:27,42.805,6.029,CST-1368DR,4396,4816,11642,01.175,551
2023-02-02T15:37:28,42.805,6.029,CST-1368DR,4396,4815,11640,01.175,551
2023-02-02T15:40:30,42.805,6.029,CST-1368DR,4396,4814,11636,01.177,551
2023-02-02T15:43:31,42.805,6.029,CST-1368DR,4396,4816,11642,01.175,551
2023-02-02T15:46:33,42.805,6.029,CST-1368DR,4396,4817,11644,01.174,551
2023-02-02T15:49:34,42.805,6.029,CST-1368DR,4396,4817,11643,01.174,551
2023-02-02T15:52:36,42.805,6.029,CST-1368DR,4396,4817,11644,01.174,551
2023-02-02T15:55:38,42.805,6.029,CST-1368DR,4396,4817,11644,01.174,551
2023-02-02T15:58:39,42.805,6.029,CST-1368DR,4396,4817,11644,01.174,551
2023-02-02T16:01:41,42.805,6.029,CST-1368DR,4396,4817,11644,01.174,551
2023-02-02T16:04:42,42.805,6.029,CST-1368DR,4396,4817,11645,01.174,551
2023-02-02T16:07:44,42.805,6.029,CST-1368DR,4396,4817,11644,01.174,551
2023-02-02T16:10:46,42.805,6.029,CST-1368DR,4396,4817,11643,01.174,551
2023-02-02T16:13:47,42.805,6.029,CST-1368DR,4396,4817,11645,01.174,551
2023-02-02T16:16:49,42.805,6.029,CST-1368DR,4396,4817,11644,01.174,551
2023-02-02T16:19:50,42.805,6.029,CST-1368DR,4396,4817,11644,01.174,551
2023-02-02T16:22:52,42.805,6.029,CST-1368DR,4396,4817,11644,01.174,551
2023-02-02T16:25:54,42.805,6.029,CST-1368DR,4396,4817,11644,01.174,551
2023-02-02T16:28:55,42.805,6.029,CST-1368DR,4396,4817,11645,01.174,551
2023-02-02T16:31:57,42.805,6.029,CST-1368DR,4396,4817,11643,01.174,551
2023-02-02T16:34:58,42.805,6.029,CST-1368DR,4396,4817,11644,01.174,551
2023-02-02T16:38:00,42.805,6.029,CST-1368DR,4396,4817,11644,01.174,551